Date String (YYYY-MM-DD hh:mm:ss) UTC,Instrument flags,Ambient pressure (hPa),Sample flow (lpm),Bypass flow (lpm),Sample temperature (°C),Ambient temperature (°C),ASC tube jacket temperature (°C),LED temperature (°C),Box temperature (°C),Sample RH (%),Span deviation,Mass concentration (μg/m³),Mass concentration (μg/m³),Mass concentration (μg/m³)
DateTimeUTC,F1_M11,P_M11,Q1_M11,Q2_M11,T1_M11,T2_M11,T3_M11,T4_M11,T5_M11,U1_M11,ZSPAN_M11,X0_M11,X2_M11,X1_M11
2022-11-28 07:00:00,,0813.7,5.00,0.00,21.9,20.6,00.0,30.8,23.8,10.1,0000.0,0003.94,0000.92,0000.70
2022-11-28 07:01:00,,0813.8,5.02,0.00,21.9,20.4,00.0,30.8,23.7,10.1,0000.0,0003.90,0000.92,0000.72
2022-11-28 07:02:00,,0813.4,5.00,0.00,21.8,20.3,00.0,30.8,23.6,10.1,0000.0,0003.90,0000.95,0000.74
2022-11-28 07:03:00,,0813.1,4.99,0.00,21.8,20.2,00.0,30.8,23.6,10.2,0000.0,0003.89,0000.96,0000.78
2022-11-28 07:04:00,,0813.1,5.00,0.00,21.8,20.1,00.0,30.8,23.6,10.1,0000.0,0003.63,0000.97,0000.79
2022-11-28 07:05:00,,0813.0,5.00,0.00,21.8,20.1,00.0,30.8,23.5,10.2,0000.0,0002.14,0000.96,0000.81
2022-11-28 07:06:00,,0813.2,5.00,0.00,21.8,20.4,00.0,30.7,23.6,10.3,0000.0,0002.13,0000.95,0000.80
2022-11-28 07:07:00,,0813.1,5.02,0.00,21.8,21.5,00.0,30.7,23.8,10.0,0000.0,0002.63,0000.95,0000.79
2022-11-28 07:08:00,,0813.2,4.99,0.00,22.0,22.4,00.0,30.7,24.0,09.7,0000.0,0002.69,0000.94,0000.78
2022-11-28 07:09:00,,0813.3,4.99,0.00,22.1,22.4,00.0,30.8,24.1,09.6,0000.0,0002.67,0000.92,0000.76
2022-11-28 07:10:00,,0813.6,5.00,0.00,22.1,22.1,00.0,30.8,24.1,09.6,0000.0,0002.67,0000.89,0000.75
2022-11-28 07:11:00,,0813.6,5.01,0.00,22.1,21.7,00.0,30.9,24.1,09.9,0000.0,0002.72,0000.87,0000.73
2022-11-28 07:12:00,,0814.1,5.00,0.00,22.1,21.5,00.0,30.9,24.0,09.9,0000.0,0002.72,0000.87,0000.72
2022-11-28 07:13:00,,0813.6,5.00,0.00,22.1,21.2,00.0,30.9,24.0,09.7,0000.0,0002.74,0000.87,0000.70
2022-11-28 07:14:00,,0813.5,5.00,0.00,22.1,20.9,00.0,30.9,23.9,09.7,0000.0,0002.69,0000.84,0000.68
2022-11-28 07:15:00,,0813.6,5.00,0.00,22.0,20.8,00.0,30.9,23.8,09.7,0000.0,0002.64,0000.81,0000.66
2022-11-28 07:16:00,,0813.5,5.00,0.00,22.0,20.7,00.0,31.0,23.9,09.5,0000.0,0002.62,0000.80,0000.64
2022-11-28 07:17:00,,0813.4,5.00,0.00,22.0,20.7,00.0,31.0,23.9,09.1,0000.0,0002.67,0000.83,0000.62
2022-11-28 07:18:00,,0813.3,5.00,0.00,22.0,20.7,00.0,31.0,23.9,08.3,0000.0,0002.10,0000.79,0000.59
2022-11-28 07:19:00,,0813.2,5.01,0.00,22.0,20.7,00.0,31.0,23.9,08.5,0000.0,0001.29,0000.76,0000.57
2022-11-28 07:20:00,,0813.2,5.00,0.00,22.0,20.7,00.0,31.0,23.9,08.5,0000.0,0001.18,0000.72,0000.55
2022-11-28 07:21:00,,0813.3,4.99,0.00,22.0,20.7,00.0,31.0,23.9,08.8,0000.0,0001.02,0000.67,0000.53
2022-11-28 07:22:00,,0813.2,4.99,0.00,22.0,20.7,00.0,31.0,23.9,09.2,0000.0,0000.91,0000.66,0000.52
2022-11-28 07:23:00,,0813.2,5.00,0.00,22.0,20.7,00.0,31.0,23.9,09.3,0000.0,0000.89,0000.65,0000.51
2022-11-28 07:24:00,,0813.0,4.99,0.00,22.0,20.7,00.0,31.0,23.9,09.2,0000.0,0000.86,0000.63,0000.49
2022-11-28 07:25:00,,0813.0,5.00,0.00,22.1,20.7,00.0,31.0,23.9,08.9,0000.0,0000.86,0000.62,0000.49
2022-11-28 07:26:00,,0812.9,5.01,0.00,22.0,20.8,00.0,31.0,23.9,08.7,0000.0,0000.90,0000.63,0000.48
2022-11-28 07:27:00,,0813.3,5.01,0.00,22.0,20.8,00.0,31.0,23.9,08.8,0000.0,0000.95,0000.65,0000.47
2022-11-28 07:28:00,,0813.0,5.01,0.00,22.1,20.8,00.0,31.0,23.9,08.8,0000.0,0000.86,0000.59,0000.46
2022-11-28 07:29:00,,0813.1,5.00,0.00,22.1,20.8,00.0,31.0,23.9,08.6,0000.0,0000.85,0000.58,0000.46
2022-11-28 07:30:00,,0813.2,5.00,0.00,22.1,20.8,00.0,31.0,23.9,08.1,0000.0,0000.87,0000.58,0000.46
2022-11-28 07:31:00,,0813.3,5.00,0.00,22.1,20.8,00.0,31.0,23.9,08.2,0000.0,0000.91,0000.60,0000.46
2022-11-28 07:32:00,,0813.2,4.99,0.00,22.1,20.7,00.0,31.0,23.9,09.0,0000.0,0000.94,0000.61,0000.47
2022-11-28 07:33:00,,0813.1,4.99,0.00,22.0,20.6,00.0,31.0,23.9,08.9,0000.0,0001.12,0000.64,0000.47
2022-11-28 07:34:00,,0813.1,4.99,0.00,22.0,20.5,00.0,31.0,23.9,08.7,0000.0,0001.37,0000.65,0000.47
2022-11-28 07:35:00,,0813.1,5.01,0.00,22.0,20.5,00.0,31.0,23.9,08.7,0000.0,0001.39,0000.63,0000.47
2022-11-28 07:36:00,,0812.9,5.00,0.00,22.0,20.6,00.0,31.0,23.9,08.0,0000.0,0001.36,0000.61,0000.45
2022-11-28 07:37:00,,0813.0,5.00,0.00,22.0,20.6,00.0,31.0,23.9,07.7,0000.0,0001.36,0000.62,0000.44
2022-11-28 07:38:00,,0813.0,5.00,0.00,22.0,20.6,00.0,30.9,23.9,07.8,0000.0,0001.98,0000.60,0000.43
2022-11-28 07:39:00,,0812.9,5.00,0.00,22.0,20.7,00.0,30.9,23.9,07.7,0000.0,0002.75,0000.61,0000.42
2022-11-28 07:40:00,,0813.0,5.00,0.00,22.0,20.7,00.0,30.9,23.9,07.9,0000.0,0002.74,0000.61,0000.41
2022-11-28 07:41:00,,0812.7,5.00,0.00,22.0,20.7,00.0,31.0,23.9,08.1,0000.0,0002.88,0000.64,0000.42
2022-11-28 07:42:00,,0812.7,5.00,0.00,22.0,20.7,00.0,31.0,23.9,08.4,0000.0,0002.89,0000.63,0000.42
2022-11-28 07:43:00,,0812.4,5.00,0.00,22.0,20.7,00.0,31.0,23.9,08.4,0000.0,0002.98,0000.64,0000.42
2022-11-28 07:44:00,,0812.5,5.00,0.00,22.0,20.7,00.0,31.0,23.9,07.6,0000.0,0002.83,0000.60,0000.41
2022-11-28 07:45:00,,0812.7,5.00,0.00,22.0,20.6,00.0,31.0,23.9,07.5,0000.0,0002.54,0000.58,0000.38
2022-11-28 07:46:00,,0812.7,5.00,0.00,22.0,20.6,00.0,31.0,23.9,07.5,0000.0,0002.42,0000.55,0000.37
2022-11-28 07:47:00,,0812.7,5.00,0.00,22.0,20.5,00.0,31.0,23.9,07.8,0000.0,0002.42,0000.54,0000.36
2022-11-28 07:48:00,,0812.7,5.01,0.00,22.0,20.5,00.0,30.9,23.8,07.6,0000.0,0002.37,0000.52,0000.35
2022-11-28 07:49:00,,0812.8,5.00,0.00,22.0,20.6,00.0,30.9,23.8,07.5,0000.0,0001.93,0000.49,0000.35
2022-11-28 07:50:00,,0812.8,4.99,0.00,22.0,20.5,00.0,30.9,23.8,07.5,0000.0,0000.89,0000.48,0000.35
2022-11-28 07:51:00,,0812.8,4.99,0.00,22.0,20.4,00.0,30.9,23.8,07.4,0000.0,0000.90,0000.48,0000.35
2022-11-28 07:52:00,,0812.7,5.00,0.00,21.9,20.3,00.0,30.9,23.7,07.5,0000.0,0000.76,0000.44,0000.34
2022-11-28 07:53:00,,0812.7,5.01,0.00,21.9,20.2,00.0,30.9,23.7,07.5,0000.0,0000.80,0000.45,0000.33
2022-11-28 07:54:00,,0812.7,5.00,0.00,21.9,20.1,00.0,30.9,23.6,07.5,0000.0,0000.78,0000.45,0000.32
2022-11-28 07:55:00,,0812.7,5.01,0.00,21.8,20.2,00.0,30.9,23.6,07.4,0000.0,0000.85,0000.45,0000.32
2022-11-28 07:56:00,,0812.8,5.01,0.00,21.8,20.2,00.0,30.9,23.7,07.4,0000.0,0000.82,0000.44,0000.32
2022-11-28 07:57:00,,0812.8,4.99,0.00,21.8,20.3,00.0,30.8,23.7,07.9,0000.0,0000.84,0000.45,0000.32
2022-11-28 07:58:00,,0813.0,4.99,0.00,21.8,20.4,00.0,30.8,23.7,08.9,0000.0,0000.89,0000.48,0000.34
2022-11-28 07:59:00,,0813.1,4.99,0.00,21.8,20.5,00.0,30.8,23.7,09.1,0000.0,0000.93,0000.50,0000.36
